Change the Weather History Date:

Monday, October 1, 2012

  Actual Average Record
Temperature  
Mean Temperature 52 °F -  
Max Temperature 68 °F 65 °F 87 °F (2004)
Min Temperature 37 °F 45 °F 35 °F (2008)
Degree Days  
Heating Degree Days 12    
Growing Degree Days 2 (Base 50)    
Moisture  
Dew Point 44 °F    
Average Humidity 83    
Maximum Humidity 100    
Minimum Humidity 35    
Precipitation  
Precipitation 0.00 in - - ()
Sea Level Pressure  
Sea Level Pressure 30.17 in    
Wind  
Wind Speed 1 mph ()    
Max Wind Speed 9 mph    
Max Gust Speed -    
Visibility 2.3 miles    
Events Fog    
Averages and records for this station are not official NWS values.
T = Trace of Precipitation, MM = Missing Value Source: Averaged Metar Reports

Daily Weather History Graph

Daily Weather History Graph

Search for Another Location

Airport or City:

Trip Planner

Search our weather history database for the weather conditions in past years. The results will help you decide how hot, cold, wet, or windy it might be!

Date:

Astronomy

Oct. 01, 2012 Rise Set
Actual Time 8:08 AM CEST 7:51 PM CEST
Civil Twilight 7:40 AM CEST 8:19 PM CEST
Nautical Twilight 7:07 AM CEST 8:52 PM CEST
Astronomical Twilight 6:34 AM CEST 9:25 PM CEST
Moon 8:16 PM CEST 9:26 AM CEST
Length of Visible Light 12h 39m
Length of Day
11h 43m
Full, 98% of the Moon is Illuminated
Oct 1
Full
Oct 8
Last Quarter
Oct 15
New
Oct 22
First Quarter
Oct 29
Full

Hourly Weather History & Observations

Time (CEST) Temp. Dew Point Humidity Pressure Visibility Wind Dir Wind Speed Gust Speed Precip Events Conditions
12:00 AM 44.6 °F 42.8 °F 93% 30.18 in 6.2 mi Calm Calm - N/A   Partly Cloudy
12:30 AM 42.8 °F 41.0 °F 93% 30.18 in - Calm Calm - N/A   Clear
1:00 AM 41.0 °F 41.0 °F 100% 30.18 in - Calm Calm - N/A   Clear
1:30 AM 41.0 °F 39.2 °F 93% 30.18 in - Calm Calm - N/A   Clear
2:00 AM 39.2 °F 39.2 °F 100% 30.18 in - Calm Calm - N/A   Clear
2:30 AM 39.2 °F 39.2 °F 100% 30.18 in - NE 2.3 mph - N/A   Clear
3:00 AM 39.2 °F 39.2 °F 100% 30.18 in - NNW 1.2 mph - N/A   Clear
3:30 AM 37.4 °F 37.4 °F 100% 30.18 in - Calm Calm - N/A   Clear
4:00 AM 39.2 °F 37.4 °F 93% 30.18 in 6.2 mi Calm Calm - N/A   Partly Cloudy
4:30 AM 39.2 °F 39.2 °F 100% 30.18 in 6.2 mi Calm Calm - N/A Fog Patches of Fog
5:00 AM 41.0 °F 39.2 °F 93% 30.15 in 6.2 mi WNW 1.2 mph - N/A Fog Scattered Clouds
5:30 AM 41.0 °F 39.2 °F 93% 30.15 in 6.2 mi Calm Calm - N/A Fog Patches of Fog
6:00 AM 41.0 °F 39.2 °F 93% 30.15 in 0.6 mi East 1.2 mph - N/A Fog Patches of Fog
6:30 AM 41.0 °F 41.0 °F 100% 30.15 in 0.2 mi Calm Calm - N/A Fog Fog
7:00 AM 41.0 °F 39.2 °F 93% 30.15 in 0.4 mi Calm Calm - N/A Fog Fog
7:30 AM 41.0 °F 41.0 °F 100% 30.15 in 0.4 mi Calm Calm - N/A Fog Fog
8:00 AM 41.0 °F 41.0 °F 100% 30.15 in 0.1 mi Calm Calm - N/A Fog Fog
8:30 AM 41.0 °F 41.0 °F 100% 30.18 in 0.1 mi Calm Calm - N/A Fog Fog
9:00 AM 41.0 °F 41.0 °F 100% 30.18 in 0.1 mi Calm Calm - N/A Fog Fog
9:30 AM 41.0 °F 41.0 °F 100% 30.18 in 0.1 mi Calm Calm - N/A Fog Fog
10:00 AM 41.0 °F 41.0 °F 100% 30.18 in 0.1 mi Calm Calm - N/A Fog Fog
10:30 AM 42.8 °F 42.8 °F 100% 30.18 in 0.1 mi Calm Calm - N/A Fog Fog
11:00 AM 42.8 °F 42.8 °F 100% 30.21 in 0.2 mi Calm Calm - N/A Fog Fog
11:30 AM 44.6 °F 44.6 °F 100% 30.18 in 0.3 mi Variable 1.2 mph - N/A Fog Fog
12:00 PM 46.4 °F 46.4 °F 100% 30.18 in 0.6 mi Calm Calm - N/A   Overcast
12:42 PM 50.0 °F 50.0 °F 100% 30.18 in 5.0 mi Calm Calm - N/A   Scattered Clouds
1:00 PM 51.8 °F 50.0 °F 94% 30.18 in 6.2 mi North 1.2 mph - N/A   Partly Cloudy
1:30 PM 55.4 °F 50.0 °F 82% 30.18 in - NE 1.2 mph - N/A   Clear
2:00 PM 59.0 °F 50.0 °F 72% 30.18 in - NE 1.2 mph - N/A   Clear
2:30 PM 60.8 °F 48.2 °F 63% 30.15 in - ENE 1.2 mph - N/A   Clear
3:00 PM 62.6 °F 46.4 °F 55% 30.15 in - Calm Calm - N/A   Clear
3:30 PM 64.4 °F 44.6 °F 49% 30.15 in - ESE 1.2 mph - N/A   Clear
4:00 PM 66.2 °F 44.6 °F 46% 30.15 in - Variable 1.2 mph - N/A   Clear
4:30 PM 68.0 °F 42.8 °F 40% 30.15 in - Calm Calm - N/A   Clear
5:00 PM 68.0 °F 39.2 °F 35% 30.15 in - Calm Calm - N/A   Clear
5:30 PM 68.0 °F 44.6 °F 43% 30.15 in - ENE 5.8 mph - N/A   Clear
6:00 PM 68.0 °F 44.6 °F 43% 30.15 in - ENE 4.6 mph - N/A   Clear
6:30 PM 66.2 °F 44.6 °F 46% 30.15 in - ENE 6.9 mph - N/A   Clear
7:00 PM 64.4 °F 46.4 °F 52% 30.15 in - NE 9.2 mph - N/A   Clear
7:30 PM 62.6 °F 48.2 °F 59% 30.15 in - ENE 8.1 mph - N/A   Clear
8:00 PM 57.2 °F 48.2 °F 72% 30.18 in - ENE 3.5 mph - N/A   Clear
8:30 PM 57.2 °F 48.2 °F 72% 30.18 in - NNE 8.1 mph - N/A   Clear
9:00 PM 55.4 °F 48.2 °F 77% 30.18 in - NNE 4.6 mph - N/A   Clear
9:30 PM 51.8 °F 48.2 °F 88% 30.18 in - Variable 2.3 mph - N/A   Clear
10:00 PM 51.8 °F 48.2 °F 88% 30.21 in - Calm Calm - N/A   Clear
10:30 PM 50.0 °F 46.4 °F 87% 30.21 in - Variable 1.2 mph - N/A   Clear
11:00 PM 48.2 °F 46.4 °F 93% 30.21 in - Variable 1.2 mph - N/A   Clear
11:30 PM 48.2 °F 44.6 °F 87% 30.21 in - Calm Calm - N/A   Clear